| time (UTC) | temp F | wind direction | speed MPH | gust MPH | rain 1hr in | rain 24hr in | rain mn in | humidity % | barometer mb |
| 20260506061508 | 58 | 179 | 0.0 | 1.0 | 0.00 | 0.00 | 0.00 | 85 | 1015.1 |
| 20260506044508 | 58 | 179 | 0.0 | 3.0 | 0.00 | 0.00 | 0.00 | 85 | 1014.6 |
| 20260506043002 | 59 | 180 | 0.0 | 2.0 | 0.00 | 0.00 | 0.00 | 82 | 1014.4 |
| 20260506041502 | 60 | 179 | 2.0 | 3.0 | 0.00 | 0.00 | 0.00 | 81 | 1014.2 |
| 20260506040002 | 60 | 179 | 1.0 | 2.0 | 0.00 | 0.00 | 0.00 | 81 | 1013.9 |
| 20260506034503 | 61 | 179 | 0.0 | 1.0 | 0.00 | 0.00 | 0.00 | 80 | 1013.8 |
| 20260506033000 | 61 | 179 | 0.0 | 2.0 | 0.00 | 0.00 | 0.00 | 80 | 1013.6 |
| 20260506031603 | 62 | 179 | 1.0 | 1.0 | 0.00 | 0.00 | 0.00 | 78 | 1013.5 |
| 20260506030100 | 62 | 179 | 1.0 | 2.0 | 0.00 | 0.00 | 0.00 | 77 | 1013.3 |
| 20260506024608 | 63 | 180 | 2.0 | 4.0 | 0.00 | 0.00 | 0.00 | 75 | 1013.2 |
| 20260506023111 | 64 | 179 | 3.0 | 6.0 | 0.00 | 0.00 | 0.00 | 73 | 1013.2 |
| 20260506021600 | 67 | 179 | 1.0 | 3.0 | 0.00 | 0.00 | 0.00 | 68 | 1013.0 |
| 20260506020058 | 66 | 176 | 3.0 | 5.0 | 0.00 | 0.00 | 0.00 | 69 | 1013.0 |
| 20260506014556 | 67 | 176 | 0.0 | 3.0 | 0.00 | 0.00 | 0.00 | 67 | 1013.0 |
| 20260506013057 | 66 | 178 | 1.0 | 4.0 | 0.00 | 0.00 | 0.00 | 68 | 1013.1 |
| 20260506011554 | 65 | 177 | 1.0 | 8.0 | 0.00 | 0.00 | 0.00 | 71 | 1013.2 |
| 20260506010052 | 64 | 179 | 1.0 | 4.0 | 0.00 | 0.00 | 0.00 | 72 | 1013.2 |
| 20260506004557 | 64 | 145 | 3.0 | 5.0 | 0.00 | 0.00 | 0.00 | 71 | 1013.2 |
| 20260506003052 | 64 | 179 | 3.0 | 9.0 | 0.00 | 0.00 | 0.00 | 71 | 1013.2 |
| 20260506001555 | 65 | 154 | 3.0 | 6.0 | 0.00 | 0.00 | 0.00 | 69 | 1013.2 |
| 20260506000056 | 64 | 178 | 0.0 | 9.0 | 0.00 | 0.00 | 0.00 | 72 | 1013.3 |
| 20260505234547 | 65 | 147 | 1.0 | 8.0 | 0.00 | 0.00 | 0.00 | 70 | 1013.5 |
| 20260505233048 | 65 | 178 | 1.0 | 6.0 | 0.00 | 0.00 | 0.00 | 70 | 1013.6 |
| 20260505231545 | 64 | 178 | 1.0 | 9.0 | 0.00 | 0.00 | 0.00 | 72 | 1013.7 |
| 20260505230108 | 62 | 164 | 3.0 | 10.0 | 0.00 | 0.00 | 0.00 | 73 | 1013.9 |
| 20260505224541 | 63 | 178 | 5.0 | 11.0 | 0.00 | 0.00 | 0.00 | 74 | 1014.0 |
| 20260505223043 | 62 | 178 | 3.0 | 9.0 | 0.00 | 0.00 | 0.00 | 75 | 1014.2 |
| 20260505221545 | 62 | 169 | 3.0 | 10.0 | 0.00 | 0.00 | 0.00 | 72 | 1014.1 |
| 20260505220051 | 64 | 179 | 1.0 | 6.0 | 0.00 | 0.00 | 0.00 | 71 | 1014.2 |
| 20260505214538 | 62 | 178 | 1.0 | 6.0 | 0.00 | 0.00 | 0.00 | 75 | 1014.4 |
| 20260505213037 | 63 | 179 | 2.0 | 5.0 | 0.00 | 0.00 | 0.00 | 72 | 1014.4 |
| 20260505211536 | 61 | 156 | 4.0 | 9.0 | 0.00 | 0.00 | 0.00 | 74 | 1014.4 |
| 20260505210036 | 62 | 177 | 0.0 | 3.0 | 0.00 | 0.00 | 0.00 | 74 | 1014.4 |
| 20260505204531 | 60 | 151 | 1.0 | 5.0 | 0.00 | 0.00 | 0.00 | 75 | 1014.6 |
| 20260505203030 | 60 | 179 | 2.0 | 6.0 | 0.00 | 0.00 | 0.00 | 78 | 1014.8 |
| 20260505201529 | 59 | 179 | 2.0 | 6.0 | 0.00 | 0.00 | 0.00 | 77 | 1014.8 |
| 20260505200036 | 59 | 154 | 1.0 | 4.0 | 0.00 | 0.00 | 0.00 | 78 | 1014.9 |
| 20260505194527 | 59 | 178 | 1.0 | 4.0 | 0.00 | 0.00 | 0.00 | 78 | 1014.9 |
| 20260505193027 | 59 | 177 | 0.0 | 3.0 | 0.00 | 0.00 | 0.00 | 77 | 1014.9 |
| 20260505191529 | 60 | 178 | 0.0 | 1.0 | 0.00 | 0.00 | 0.00 | 76 | 1014.9 |
| 20260505190024 | 59 | 176 | 0.0 | 1.0 | 0.00 | 0.00 | 0.00 | 79 | 1014.9 |
| 20260505184522 | 57 | 179 | 1.0 | 5.0 | 0.00 | 0.00 | 0.00 | 82 | 1014.9 |
| 20260505183024 | 57 | 178 | 0.0 | 6.0 | 0.00 | 0.00 | 0.00 | 81 | 1014.8 |
| 20260505181522 | 58 | 177 | 0.0 | 2.0 | 0.00 | 0.00 | 0.00 | 80 | 1014.8 |
| 20260505180015 | 57 | 178 | 0.0 | 3.0 | 0.00 | 0.00 | 0.00 | 81 | 1014.7 |
| 20260505174514 | 57 | 178 | 0.0 | 3.0 | 0.00 | 0.00 | 0.00 | 82 | 1014.8 |
| 20260505173014 | 56 | 178 | 0.0 | 3.0 | 0.00 | 0.00 | 0.00 | 84 | 1014.7 |
| 20260505171510 | 56 | 179 | 0.0 | 1.0 | 0.00 | 0.00 | 0.00 | 84 | 1014.7 |
| 20260505170006 | 54 | 148 | 0.0 | 2.0 | 0.00 | 0.00 | 0.00 | 88 | 1014.6 |
| 20260505164502 | 54 | 149 | 0.0 | 3.0 | 0.00 | 0.00 | 0.00 | 89 | 1014.4 |
| 20260505163104 | 54 | 179 | 0.0 | 1.0 | 0.00 | 0.00 | 0.00 | 90 | 1014.4 |
| 20260505161609 | 53 | 177 | 0.0 | 2.0 | 0.00 | 0.00 | 0.00 | 90 | 1014.4 |
| 20260505153053 | 52 | 149 | 2.0 | 3.0 | 0.00 | 0.00 | 0.00 | 91 | 1014.2 |
| 20260505151552 | 52 | 149 | 1.0 | 4.0 | 0.00 | 0.00 | 0.00 | 92 | 1014.2 |
| 20260505124515 | 0 | 0.0 | 0.0 | 0.00 | 0.00 | 0.00 | 1013.1 | ||
| 20260505123008 | 48 | 224 | 0.0 | 0.0 | 0.00 | 0.00 | 0.00 | 92 | 1013.0 |
| 20260505121521 | 50 | 179 | 0.0 | 0.0 | 0.00 | 0.00 | 0.00 | 93 | 1013.0 |
| 20260505120006 | 50 | 179 | 0.0 | 0.0 | 0.00 | 0.00 | 0.00 | 92 | 1013.0 |
| 20260505114505 | 50 | 179 | 1.0 | 3.0 | 0.00 | 0.00 | 0.00 | 92 | 1012.9 |
| 20260505113004 | 50 | 179 | 0.0 | 2.0 | 0.00 | 0.00 | 0.00 | 92 | 1012.9 |
| 20260505111503 | 50 | 179 | 1.0 | 3.0 | 0.00 | 0.00 | 0.00 | 92 | 1012.9 |
| 20260505110130 | 50 | 179 | 1.0 | 3.0 | 0.00 | 0.00 | 0.00 | 92 | 1012.6 |
| 20260505101559 | 50 | 179 | 2.0 | 4.0 | 0.00 | 0.00 | 0.00 | 92 | 1012.3 |
| 20260505100055 | 50 | 179 | 0.0 | 2.0 | 0.00 | 0.00 | 0.00 | 92 | 1012.3 |
| 20260505094609 | 50 | 179 | 0.0 | 2.0 | 0.00 | 0.00 | 0.00 | 92 | 1012.3 |
| 20260505093056 | 50 | 179 | 1.0 | 2.0 | 0.00 | 0.00 | 0.00 | 92 | 1012.2 |
| 20260505091554 | 50 | 179 | 0.0 | 2.0 | 0.00 | 0.00 | 0.00 | 92 | 1012.1 |
| 20260505090048 | 50 | 175 | 2.0 | 5.0 | 0.00 | 0.00 | 0.00 | 92 | 1012.0 |
| 20260505084554 | 50 | 150 | 2.0 | 5.0 | 0.00 | 0.00 | 0.00 | 92 | 1011.9 |
| 20260505083056 | 50 | 150 | 4.0 | 6.0 | 0.00 | 0.00 | 0.00 | 92 | 1012.0 |
| 20260505081554 | 50 | 154 | 2.0 | 5.0 | 0.00 | 0.00 | 0.00 | 92 | 1011.8 |
| 20260505080049 | 50 | 147 | 2.0 | 5.0 | 0.00 | 0.00 | 0.00 | 91 | 1011.7 |
| 20260505074537 | 50 | 179 | 3.0 | 5.0 | 0.00 | 0.00 | 0.00 | 91 | 1011.4 |
| 20260505073038 | 51 | 148 | 4.0 | 7.0 | 0.00 | 0.00 | 0.00 | 91 | 1011.4 |
| 20260505071544 | 51 | 153 | 2.0 | 5.0 | 0.00 | 0.00 | 0.00 | 90 | 1011.3 |
| 20260505070031 | 51 | 150 | 3.0 | 7.0 | 0.00 | 0.00 | 0.00 | 90 | 1011.1 |